Sechelt Aut, British Columbia

11:19 AM PDT on September 22, 2017 (GMT -0700)
Sechelt Aut

Weather History for CVOU - February, 2014

Change the Weather History Date:

Sunday, February 9, 2014

  Actual Average Record
Temperature  
Mean Temperature 30 °F -  
Max Temperature 39 °F - - ()
Min Temperature 20 °F - - ()
Degree Days  
Heating Degree Days 36    
Moisture  
Dew Point 17 °F    
Average Humidity 59    
Maximum Humidity 83    
Minimum Humidity 32    
Precipitation  
Precipitation 0.00 in - - ()
Sea Level Pressure  
Sea Level Pressure 30.06 in    
Wind  
Wind Speed 4 mph ()    
Max Wind Speed 7 mph    
Max Gust Speed -    
T = Trace of Precipitation, MM = Missing Value Source: Averaged Metar Reports

Daily Weather History Graph

Daily Weather History Graph

Search for Another Location

Airport or City:

Trip Planner

Search our weather history database for the weather conditions in past years. The results will help you decide how hot, cold, wet, or windy it might be!

Date:

Astronomy

Feb. 09, 2014 Rise Set
Actual Time 7:34 AM PST 5:24 PM PST
Civil Twilight 7:00 AM PST 5:58 PM PST
Nautical Twilight 6:23 AM PST 6:35 PM PST
Astronomical Twilight 5:45 AM PST 7:13 PM PST
Moon 12:59 PM PST (2/9) 3:53 AM PST (2/9)
Length of Visible Light 10h 57m
Length of Day
9h 50m
Waxing Gibbous, 78% of the Moon is Illuminated
Feb 9
Waxing Gibbous
Feb 14
Full
Feb 22
Last Quarter
Mar 1
New
Mar 8
First Quarter

Hourly Weather History & Observations

Time (PST) Temp. Windchill Dew Point Humidity Pressure Visibility Wind Dir Wind Speed Gust Speed Precip Events Conditions
12:00 AM 23.0 °F 17.0 °F 12.9 °F 65% 29.96 in - NNW 4.6 mph - N/A   Unknown
1:00 AM 22.8 °F 15.5 °F 13.1 °F 66% 29.98 in - NW 5.8 mph - N/A   Unknown
2:00 AM 24.1 °F 19.7 °F 12.0 °F 60% 30.01 in - NNW 3.5 mph - N/A   Unknown
3:00 AM 23.0 °F - 11.8 °F 62% 30.02 in - NNW 2.3 mph - N/A   Unknown
4:00 AM 23 °F - 12 °F 49% 30.04 in - NNW 3.5 mph - -  
4:00 AM 23.0 °F 18.4 °F 11.8 °F 62% 30.04 in - NNW 3.5 mph - N/A   Unknown
5:00 AM 23.2 °F 18.7 °F 10.6 °F 59% 30.04 in - NNW 3.5 mph - N/A   Unknown
6:00 AM 20.8 °F 14.4 °F 10.8 °F 65% 30.05 in - NNW 4.6 mph - N/A   Unknown
7:00 AM 22.1 °F 14.7 °F 10.2 °F 60% 30.05 in - NW 5.8 mph - N/A   Unknown
8:00 AM 23.7 °F 15.6 °F 9.9 °F 56% 30.07 in - NNW 6.9 mph - N/A   Unknown
9:00 AM 26.1 °F 21.9 °F 14.0 °F 60% 30.09 in - NNW 3.5 mph - N/A   Unknown
10:00 AM 29 °F - 11 °F 32% 30.10 in - NW 4.6 mph - -  
10:00 AM 29.1 °F 25.4 °F 10.9 °F 47% 30.10 in - NW 3.5 mph - N/A   Unknown
11:00 AM 33.6 °F - 12.0 °F 41% 30.11 in - NW 2.3 mph - N/A   Unknown
12:00 PM 38.8 °F - 14.0 °F 36% 30.11 in - SSE 2.3 mph - N/A   Unknown
1:00 PM 35.8 °F 31.9 °F 18.5 °F 50% 30.10 in - SSE 4.6 mph - N/A   Unknown
2:00 PM 36.0 °F 32.1 °F 21.9 °F 57% 30.09 in - SSE 4.6 mph - N/A   Unknown
3:00 PM 34.9 °F 32.0 °F 22.3 °F 60% 30.09 in - SE 3.5 mph - N/A   Unknown
4:00 PM 34 °F - 21 °F 46% 30.08 in - ESE 4.6 mph - -  
4:00 PM 33.8 °F 29.6 °F 21.0 °F 60% 30.08 in - ESE 4.6 mph - N/A   Unknown
5:00 PM 33.3 °F - 20.8 °F 60% 30.07 in - SE 2.3 mph - N/A   Unknown
6:00 PM 31.6 °F - 21.0 °F 65% 30.08 in - East 2.3 mph - N/A   Unknown
7:00 PM 31.1 °F - 23.0 °F 72% 30.08 in - NW 1.2 mph - N/A   Unknown
8:00 PM 31.3 °F 26.6 °F 23.7 °F 74% 30.07 in - NNW 4.6 mph - N/A   Unknown
9:00 PM 32.2 °F - 24.1 °F 72% 30.08 in - North 2.3 mph - N/A   Unknown
10:00 PM 33 °F - 23 °F 57% 30.07 in - NW 3.5 mph - -  
10:00 PM 33.3 °F 28.9 °F 23.4 °F 67% 30.07 in - NW 4.6 mph - N/A   Unknown
11:00 PM 31.5 °F 28.1 °F 27.0 °F 83% 30.08 in - NW 3.5 mph - N/A   Unknown